Other Public Products
Issued by NWS Grand Forks, ND

Home | Current Version | Previous Version | Text Only | Print | Product List | Glossary On
Versions: 1 2 3 4 5 6 7 8 9 10 11 12 13 14 15 16 17 18 19 20 21 22 23 24 25 26 27 28 29 30 31 32 33 34 35 36 37 38 39 40 41 42 43 44 45 46 47 48 49 50
000
FPUS83 KFGF 201431
OPUFGF
PRAIRIE TO PINES WEATHER ROUNDUP
NATIONAL WEATHER SERVICE EASTERN NORTH DAKOTA/GRAND FORKS ND
800 AM CST SAT DEC 20 2014

 **SATELLITE DATA USED TO AUGMENT SKY COVER AT AUTOMATED STATIONS**
 *****  WEATHER ACROSS EASTERN NORTH DAKOTA  *****

CITY           SKY/WX    TMP DP  RH WIND       PRES   REMARKS
GRAND FORKS    CLOUDY    27  26  96 S10       30.00S WCI  17
GRAND FORKS AF CLOUDY    27  27 100 SW8       30.00S WCI  18
GRAND CITY NWS   N/A     27 N/A N/A SW7         N/A  WCI  19
BUXTON           N/A     28  27  99 S9          N/A  WCI  19
DEVILS LAKE    CLOUDY    21  14  73 CALM      29.94S VSB 1/2
FARGO          CLOUDY    30  26  85 S10       30.03R WCI  21
WAHPETON ARPT  CLOUDY    30  28  93 S9        30.04S WCI  22
$$

 *****  WEATHER ACROSS CENTRAL AND WESTERN NORTH DAKOTA  *****

CITY           SKY/WX    TMP DP  RH WIND       PRES   REMARKS
JAMESTOWN      FOG       19  15  84 S9        29.95F VSB 1/2 WCI   8
BISMARCK       CLOUDY    16  13  88 E6        29.92F WCI   7
MINOT          FOG       23  21  92 S7        29.88F VSB 1/4 WCI  15
MINOT AFB      FRZ DRZL  23  23 100 SE6       29.88F VSB 1/4 WCI  16
GARRISON         N/A     19  16  88 E8        29.87F WCI   9
WILLISTON      CLOUDY    21  19  92 CALM      29.84S
DICKINSON      CLOUDY    30  25  81 S6        29.82S WCI  24
HETTINGER      CLOUDY    31  24  75 W5        29.87S
$$

 *****  OTHER OBSERVATIONS NORTHEAST NORTH DAKOTA  *****

CITY           SKY/WX    TMP DP  RH WIND       PRES   REMARKS
WALHALLA         N/A     25  25 100 CALM      29.99S FOG
LANGDON        CLOUDY    25  23  93 S7        29.94S FOG     WCI  17
CAVALIER       CLOUDY    27  27 100 CALM      30.00R FOG
GRAFTON        NOT AVBL
CANDO          FOG       23  21  93 SE3       29.95F VSB 3/4
FORT TOTTEN    NOT AVBL
ROLLA          FOG       21  21 100 S7        29.92F VSB 1/2 WCI  13
RUGBY          FOG       23  23 100 SE8       29.92F VSB 1/2 WCI  14
 ***** THE ABOVE OBSERVATIONS ARE NON NWS ARE NOT QUALITY
        CONTROLLED AND MAY MIS-REPORT RAIN FOR SNOW...
$$

 *****  OTHER OBSERVATIONS SOUTHEAST NORTH DAKOTA *****

CITY           SKY/WX    TMP DP  RH WIND       PRES   REMARKS
COOPERSTOWN    NOT AVBL
VALLEY CITY    FOG       23  23 100 S9        29.98S VSB 1/4 WCI  13
OAKES          FOG       27  27 100 S12       29.99F VSB 1/4 WCI  16
GWINNER        CLOUDY    30  30 100 MISG      30.02R VSB 1
SHEYENNE NWR     N/A     28  26  94 S7        29.95  WCI  21
BUFFALO        NOT AVBL
WYNDMERE         N/A     28  28 100 S7          N/A  WCI  21
 ***** THE ABOVE OBSERVATIONS ARE NON NWS ARE NOT QUALITY
       CONTROLLED AND MAY MIS-REPORT RAIN FOR SNOW...
$$

  *****  WEATHER ACROSS NORTHERN MINNESOTA  *****

CITY           SKY/WX    TMP DP  RH WIND       PRES   REMARKS
FLAG ISLAND    CLOUDY    27  27 100 S12       30.00S FOG     WCI  16
WARROAD        CLOUDY    28  25  86 SE7       30.01R FOG     WCI  21
ROSEAU         CLOUDY    28  25  86 S5        30.00R FOG     WCI  23
HALLOCK        CLOUDY    28  27  93 CALM      29.99S FOG
THF RVR FALLS  CLOUDY    28  27  93 S8        30.01R WCI  20
HALSTAD          N/A     29  27  91 S9          N/A  WCI  20
FOSSTON        CLOUDY    27  27 100 S12       30.01S FOG     WCI  16
BAUDETTE       CLOUDY    28  26  92 SE5       30.02S FOG     WCI  23
WASKISH        CLOUDY    28  28 100 CALM      30.03S FOG
CROOKSTON      CLOUDY    28  28 100 SW9       30.03R FOG     WCI  20
$$
  *****  WEATHER ACROSS CENTRAL AND WEST MINNESOTA  *****

CITY           SKY/WX    TMP DP  RH WIND       PRES   REMARKS
BEMIDJI          N/A     29  28  96 S7        30.01S FOG     WCI  22
PARK RAPIDS    CLOUDY    30  28  92 S10       30.02S FOG     WCI  21
WADENA         CLOUDY    28  27  93 S13       30.04S FOG     WCI  18
DETROIT LAKES  CLOUDY    30  30 100 S9        30.03R FOG     WCI  22
MOORHEAD       CLOUDY    30  30 100 S6        30.04R WCI  24
FERGUS FALLS   CLOUDY    28  28 100 S12       30.07S FOG     WCI  18
ELBOW LAKE     CLOUDY    29  28  97 S10       30.04S FOG     WCI  19
MORRIS MN      MOCLDY    30  28  93 S9        30.05R FOG     WCI  22
STAPLES        CLOUDY    28  27  93 S14       30.05S FOG     WCI  17
WHEATON        CLOUDY    28  27  93 S7        30.07S WCI  21
$$
  *****  WEATHER ELSEWHERE ACROSS MINNESOTA  *****

CITY           SKY/WX    TMP DP  RH WIND       PRES   REMARKS
DULUTH         LGT SNOW  26  23  88 SE6       30.11S FOG     WCI  19
INTRNTL FALLS  LGT SNOW  27  24  89 S5        30.05S FOG     WCI  22
ELY            LGT SNOW  27  25  93 S6        30.09S WCI  20
CLOQUET        CLOUDY    27  25  93 SE3       30.11S FOG
BRAINERD       CLOUDY    30  29  96 S8        30.07F FOG     WCI  22
HIBBING        CLOUDY    27  23  85 S5        30.08S FOG     WCI  22
ALEXANDRIA     CLOUDY    29  27  92 S10       30.05S FOG     WCI  20
SAINT CLOUD    CLOUDY    32  28  85 S10       30.10F FOG     WCI  24
MINNEAPOLIS    CLOUDY    30  26  85 SE6       30.16S FOG     WCI  24
$$

  *****  WEATHER ACROSS SOUTH DAKOTA  *****

CITY           SKY/WX    TMP DP  RH WIND       PRES   REMARKS
SIOUX FALLS    CLOUDY    31  29  92 S12       30.06S FOG     WCI  22
BROOKINGS      NOT AVBL
WATERTOWN      CLOUDY    28  26  92 S13       30.01S FOG     WCI  17
HURON          FOG       25  24  96 S7        30.03S VSB 1/2 WCI  17
SISSETON         N/A     29  28  96 S9        30.02S WCI  20
ABERDEEN       FOG       26  24  92 S12       30.01S VSB 1/2 WCI  16
MITCHELL       FOG       27  27 100 S9        30.05S VSB 1/4 WCI  18
PIERRE         FOG       19  15  84 E7        29.95F VSB 1/4 WCI  10
MOBRIDGE       PTCLDY    20  17  88 SE9       29.90S WCI   9
RAPID CITY     CLOUDY    36  23  59 NW8       29.90R
$$

  *****  SOME WEATHER IN NEARBY STATES *****

CITY           SKY/WX    TMP DP  RH WIND       PRES   REMARKS
GLASGOW MT     PTCLDY    24  21  88 SE3       29.81S
GREAT FALLS MT PTCLDY    31  21  66 SW15      29.86S WCI  20
CHEYENNE WY    CLOUDY    36  17  46 SW14      29.96R
SCOTTSBLUFF NE MOCLDY    19  15  84 CALM      29.97R
OMAHA NE       CLOUDY    32  32 100 S9        30.13R FOG     WCI  24
DES MOINES IA  CLOUDY    32  28  85 S5        30.18R
DAVENPORT IA   CLOUDY    29  23  78 SE7       30.24S HAZE    WCI  22
CHICAGO IL     CLOUDY    30  24  78 SW3       30.27S
EAU CLAIRE WI  CLOUDY    28  21  75 S6        30.19R WCI  22
LA CROSSE WI   CLOUDY    31  24  75 S6        30.22S
$$

  *****  SOME NATIONAL WEATHER *****

CITY           SKY/WX    TMP DP  RH WIND       PRES   REMARKS
LA GUARDIA NY  CLOUDY    31  21  66 N12       30.29R WCI  22
RALEIGH NC     DRIZZLE   34  27  75 NE3       30.30S
ATLANTA GA     CLOUDY    46  43  87 NE7       30.19R
NEW ORLEANS LA CLOUDY    51  47  86 NE13      30.13R FOG
OKLAHOMA CITY  CLOUDY    41  35  79 SE6       30.20F
ALBUQUERQUE NM MOCLDY    26  21  81 S5        30.16S WCI  20
SALT LAKE CITY MOCLDY    39  33  79 SE8       30.10S
LOS ANGELES CA PTCLDY    51  47  86 CALM      30.16R
BOISE ID       LGT RAIN  42  35  76 SE6       30.01R
SEATTLE WA     LGT RAIN  45  40  82 E9        29.67F
$$

*** WEATHER ACROSS MANITOBA...SASKATCHEWAN AND ONTARIO ***
                ***ONTARIO***

CITY           SKY/WX    TMP DP  RH WIND       PRES   REMARKS
GERALDTON      CLOUDY    12   9  85 SE3       30.19R
THUNDER BAY    FLURRIES  23  23 100 W2        30.19
SIOUX LOOKOUT  FLURRIES  23  21  93 SE3       30.06F
TORONTO        MOCLDY    23  21  93 N8        30.30S WCI  14
BIG TROUT LK   CLOUDY    19  18  93 S3        30.11F
PICKLE LAKE    FLURRIES  19  16  86 S7        30.09S WCI  10
DRYDEN         FLURRIES  23  23 100 SE8       30.04F WCI  14
KENORA         FOG       23  23 100 SE6       30.01F VSB 1   WCI  16
$$
                *** MANITOBA***

CITY           SKY/WX    TMP DP  RH WIND       PRES   REMARKS
BRANDON        CLOUDY    23  21  93 SE3       29.94
DAUPHIN        CLOUDY    21  19  93 SE7       29.95F WCI  13
ISLAND LAKE    FLURRIES  19  18  93 SE5       30.04F WCI  13
PILOT MOUND      N/A     23  21  93 S1          N/A
THE PAS        CLOUDY    19  18  93 SE10      29.92F FOG     WCI   8
THOMPSON       FLURRIES  16  12  86 S3        29.99
WINNIPEG       FRZ DRZL  27  25  93 S7        30.01R FOG     WCI  19
LYNN LAKE      FLURRIES  12  10  92 S8        29.87F WCI   1
CHURCHILL      FLURRIES  10   9  92 S3        30.02
GILLAM         LGT SNOW  14  12  92 SW3       30.04F
$$
                ***SASKATCHEWAN***

CITY           SKY/WX    TMP DP  RH WIND       PRES   REMARKS
ESTEVAN        FOG      N/A N/A N/A E8          N/A  VSB 1/2
KINDERSLEY     MOCLDY    21  19  93 W6        29.70R WCI  14
LLOYDMINSTER   CLOUDY    16  14  93 CALM      29.69R
PRINCE ALBERT  LGT SNOW  18  16  93 E10       29.79  FOG     WCI   6
REGINA         FLURRIES  19  19 100 SE16      29.77  WCI   5


USA.gov is the U.S. government's official web portal to all federal, state and local government web resources and services.